Zurück zum Katalog

SL-14 DEB

AktivPO
NORAD 25225·DEBRIS·🇷🇺 Russia

Gestartet Aug 18, 1987 von Plesetsk Cosmodrome

Loading…

Nächste Überflüge (nächste 24 Stunden)

TLE

AktuellSource: Space-Track

Epoche: Sep 14, 2026, 14:22 UTC

1 25225U 87068BC  26257.59893613  .00004829  00000-0  13998-2 0  9996
2 25225  82.4920 345.5191 0039269 309.3356 116.2389 14.43845435457501

Verfolge SL-14 DEB in Echtzeit mit AllMySat

Download on the App Store